| time (UTC) | temp F | wind direction | speed MPH | gust MPH | rain 1hr in | rain 24hr in | rain mn in | humidity % | barometer mb |
| 20260506231823 | 55 | 345 | 0.0 | 1.0 | 0.00 | 0.47 | 0.44 | 67 | 1009.9 |
| 20260506231324 | 55 | 345 | 0.0 | 2.0 | 0.00 | 0.47 | 0.44 | 66 | 1009.5 |
| 20260506230823 | 55 | 345 | 0.0 | 3.0 | 0.00 | 0.47 | 0.44 | 66 | 1009.6 |
| 20260506230542 | 55 | 345 | 2.0 | 3.0 | 0.00 | 0.47 | 0.44 | 64 | 1009.9 |
| 20260506225823 | 56 | 345 | 1.0 | 3.0 | 0.00 | 0.47 | 0.44 | 65 | 1009.7 |
| 20260506225550 | 56 | 345 | 0.0 | 1.0 | 0.00 | 0.47 | 0.44 | 65 | 1009.7 |
| 20260506224823 | 56 | 345 | 0.0 | 3.0 | 0.00 | 0.47 | 0.44 | 67 | 1009.7 |
| 20260506224323 | 56 | 345 | 1.0 | 3.0 | 0.00 | 0.47 | 0.44 | 65 | 1009.6 |
| 20260506223823 | 56 | 345 | 1.0 | 3.0 | 0.00 | 0.47 | 0.44 | 64 | 1009.6 |
| 20260506223552 | 56 | 345 | 0.0 | 3.0 | 0.00 | 0.47 | 0.44 | 65 | 1009.5 |
| 20260506222823 | 56 | 345 | 0.0 | 3.0 | 0.00 | 0.47 | 0.44 | 63 | 1009.5 |
| 20260506222322 | 56 | 345 | 1.0 | 2.0 | 0.00 | 0.47 | 0.44 | 62 | 1009.4 |
| 20260506221823 | 56 | 345 | 0.0 | 2.0 | 0.00 | 0.47 | 0.44 | 65 | 1009.5 |
| 20260506221546 | 56 | 345 | 1.0 | 2.0 | 0.00 | 0.47 | 0.44 | 65 | 1009.4 |
| 20260506221046 | 56 | 345 | 1.0 | 4.0 | 0.00 | 0.47 | 0.44 | 61 | 1009.2 |
| 20260506220322 | 56 | 345 | 2.0 | 4.0 | 0.00 | 0.47 | 0.44 | 63 | 1009.3 |
| 20260506220042 | 56 | 350 | 2.0 | 4.0 | 0.00 | 0.47 | 0.44 | 63 | 1009.2 |
| 20260506215322 | 56 | 344 | 2.0 | 5.0 | 0.00 | 0.47 | 0.44 | 63 | 1009.1 |
| 20260506214821 | 56 | 338 | 3.0 | 7.0 | 0.00 | 0.47 | 0.44 | 64 | 1009.1 |
| 20260506214322 | 56 | 0 | 3.0 | 7.0 | 0.00 | 0.47 | 0.44 | 62 | 1009.3 |
| 20260506213821 | 56 | 0 | 2.0 | 5.0 | 0.00 | 0.47 | 0.44 | 64 | 1009.1 |
| 20260506213544 | 56 | 281 | 2.0 | 5.0 | 0.00 | 0.47 | 0.44 | 65 | 1009.2 |
| 20260506212821 | 57 | 341 | 2.0 | 5.0 | 0.00 | 0.47 | 0.44 | 65 | 1009.1 |
| 20260506212321 | 57 | 343 | 1.0 | 5.0 | 0.00 | 0.47 | 0.44 | 64 | 1009.0 |
| 20260506211822 | 57 | 340 | 2.0 | 5.0 | 0.00 | 0.47 | 0.44 | 66 | 1008.9 |
| 20260506211321 | 57 | 0 | 2.0 | 7.0 | 0.00 | 0.47 | 0.44 | 66 | 1009.0 |
| 20260506210321 | 57 | 338 | 3.0 | 9.0 | 0.00 | 0.47 | 0.44 | 67 | 1008.9 |
| 20260506205823 | 57 | 344 | 4.0 | 9.0 | 0.00 | 0.47 | 0.44 | 64 | 1008.7 |
| 20260506205318 | 58 | 314 | 2.0 | 4.0 | 0.00 | 0.47 | 0.44 | 69 | 1008.7 |
| 20260506204819 | 57 | 340 | 2.0 | 5.0 | 0.00 | 0.47 | 0.44 | 68 | 1008.4 |
| 20260506204320 | 57 | 285 | 2.0 | 9.0 | 0.00 | 0.47 | 0.44 | 71 | 1008.4 |
| 20260506203821 | 56 | 0 | 2.0 | 9.0 | 0.00 | 0.47 | 0.44 | 69 | 1008.4 |
| 20260506203321 | 56 | 337 | 3.0 | 7.0 | 0.00 | 0.47 | 0.44 | 70 | 1008.6 |
| 20260506203039 | 56 | 344 | 2.0 | 7.0 | 0.00 | 0.47 | 0.44 | 70 | 1008.6 |
| 20260506202321 | 56 | 285 | 2.0 | 7.0 | 0.00 | 0.47 | 0.44 | 68 | 1008.6 |
| 20260506201820 | 57 | 341 | 2.0 | 6.0 | 0.00 | 0.47 | 0.44 | 69 | 1008.4 |
| 20260506201538 | 57 | 323 | 2.0 | 6.0 | 0.00 | 0.47 | 0.44 | 71 | 1008.3 |
| 20260506200818 | 57 | 289 | 3.0 | 6.0 | 0.00 | 0.47 | 0.44 | 70 | 1008.4 |
| 20260506200544 | 56 | 348 | 2.0 | 6.0 | 0.00 | 0.47 | 0.44 | 70 | 1008.2 |
| 20260506195818 | 56 | 317 | 2.0 | 9.0 | 0.00 | 0.47 | 0.44 | 71 | 1008.4 |
| 20260506195540 | 56 | 348 | 2.0 | 9.0 | 0.00 | 0.47 | 0.44 | 72 | 1008.4 |
| 20260506194819 | 56 | 345 | 4.0 | 9.0 | 0.00 | 0.47 | 0.44 | 72 | 1008.4 |
| 20260506194320 | 56 | 347 | 4.0 | 6.0 | 0.00 | 0.47 | 0.44 | 72 | 1008.6 |
| 20260506193820 | 56 | 0 | 2.0 | 6.0 | 0.00 | 0.47 | 0.44 | 76 | 1008.3 |
| 20260506193319 | 56 | 271 | 2.0 | 6.0 | 0.00 | 0.47 | 0.44 | 75 | 1008.4 |
| 20260506192820 | 56 | 331 | 2.0 | 6.0 | 0.00 | 0.47 | 0.44 | 76 | 1008.3 |
| 20260506192319 | 56 | 347 | 3.0 | 6.0 | 0.00 | 0.47 | 0.44 | 77 | 1008.3 |
| 20260506191819 | 56 | 278 | 2.0 | 6.0 | 0.00 | 0.47 | 0.44 | 77 | 1008.3 |
| 20260506191319 | 55 | 321 | 2.0 | 6.0 | 0.00 | 0.47 | 0.44 | 81 | 1008.6 |
| 20260506191037 | 54 | 334 | 3.0 | 6.0 | 0.00 | 0.47 | 0.44 | 81 | 1008.7 |
| 20260506190319 | 54 | 0 | 2.0 | 4.0 | 0.00 | 0.47 | 0.44 | 81 | 1008.8 |
| 20260506185819 | 54 | 293 | 2.0 | 6.0 | 0.00 | 0.47 | 0.44 | 81 | 1008.8 |
| 20260506184819 | 55 | 340 | 4.0 | 7.0 | 0.00 | 0.47 | 0.44 | 79 | 1008.8 |
| 20260506184319 | 55 | 334 | 3.0 | 7.0 | 0.00 | 0.47 | 0.44 | 81 | 1008.8 |
| 20260506183818 | 55 | 314 | 2.0 | 7.0 | 0.00 | 0.47 | 0.44 | 81 | 1008.7 |
| 20260506183319 | 55 | 281 | 4.0 | 7.0 | 0.00 | 0.47 | 0.44 | 80 | 1008.6 |
| 20260506182819 | 55 | 300 | 3.0 | 6.0 | 0.00 | 0.47 | 0.44 | 80 | 1008.3 |
| 20260506182318 | 55 | 289 | 3.0 | 6.0 | 0.00 | 0.47 | 0.44 | 84 | 1008.3 |
| 20260506182044 | 55 | 305 | 0.0 | 3.0 | 0.00 | 0.47 | 0.44 | 84 | 1008.3 |
| 20260506181318 | 54 | 305 | 1.0 | 4.0 | 0.00 | 0.47 | 0.44 | 85 | 1008.6 |
| 20260506180818 | 54 | 302 | 1.0 | 4.0 | 0.00 | 0.47 | 0.44 | 85 | 1008.6 |
| 20260506180318 | 54 | 331 | 0.0 | 5.0 | 0.00 | 0.47 | 0.44 | 88 | 1008.6 |
| 20260506180038 | 53 | 331 | 1.0 | 5.0 | 0.00 | 0.47 | 0.44 | 86 | 1008.7 |
| 20260506174818 | 53 | 351 | 2.0 | 4.0 | 0.00 | 0.47 | 0.44 | 86 | 1008.9 |
| 20260506174318 | 53 | 0 | 1.0 | 7.0 | 0.00 | 0.47 | 0.44 | 86 | 1008.8 |
| 20260506173817 | 53 | 1 | 0.0 | 7.0 | 0.00 | 0.47 | 0.44 | 86 | 1008.6 |
| 20260506173317 | 53 | 0 | 3.0 | 5.0 | 0.00 | 0.47 | 0.44 | 87 | 1008.6 |
| 20260506173038 | 53 | 319 | 1.0 | 5.0 | 0.00 | 0.47 | 0.44 | 87 | 1008.3 |
| 20260506172319 | 53 | 348 | 2.0 | 5.0 | 0.00 | 0.47 | 0.44 | 87 | 1008.3 |
| 20260506171818 | 53 | 338 | 1.0 | 5.0 | 0.00 | 0.47 | 0.44 | 88 | 1008.4 |
| 20260506171317 | 53 | 351 | 3.0 | 6.0 | 0.00 | 0.47 | 0.44 | 89 | 1008.3 |
| 20260506171040 | 53 | 334 | 2.0 | 6.0 | 0.00 | 0.47 | 0.44 | 91 | 1008.3 |
| 20260506170317 | 53 | 341 | 2.0 | 5.0 | 0.00 | 0.47 | 0.44 | 92 | 1008.4 |
| 20260506165815 | 52 | 298 | 3.0 | 6.0 | 0.00 | 0.47 | 0.44 | 93 | 1008.4 |
| 20260506165541 | 51 | 330 | 0.0 | 9.0 | 0.00 | 0.47 | 0.44 | 93 | 1008.4 |
| 20260506165034 | 51 | 0 | 4.0 | 9.0 | 0.00 | 0.47 | 0.44 | 93 | 1008.6 |
| 20260506164316 | 51 | 0 | 3.0 | 7.0 | 0.00 | 0.47 | 0.44 | 94 | 1008.6 |
| 20260506163817 | 51 | 320 | 3.0 | 4.0 | 0.00 | 0.47 | 0.44 | 95 | 1008.6 |
| 20260506163317 | 51 | 344 | 2.0 | 3.0 | 0.00 | 0.47 | 0.44 | 95 | 1008.6 |
| 20260506162816 | 51 | 344 | 1.0 | 4.0 | 0.00 | 0.47 | 0.44 | 95 | 1008.4 |
| 20260506162547 | 51 | 340 | 1.0 | 4.0 | 0.00 | 0.47 | 0.44 | 96 | 1008.4 |
| 20260506161816 | 50 | 327 | 1.0 | 4.0 | 0.00 | 0.47 | 0.44 | 96 | 1008.6 |
| 20260506161316 | 50 | 337 | 2.0 | 3.0 | 0.00 | 0.47 | 0.44 | 96 | 1008.6 |
| 20260506160816 | 50 | 317 | 1.0 | 9.0 | 0.00 | 0.47 | 0.44 | 96 | 1008.4 |
| 20260506160316 | 49 | 324 | 3.0 | 9.0 | 0.00 | 0.47 | 0.44 | 95 | 1008.3 |
| 20260506155817 | 49 | 334 | 3.0 | 6.0 | 0.00 | 0.47 | 0.44 | 96 | 1008.2 |
| 20260506155316 | 49 | 292 | 4.0 | 7.0 | 0.00 | 0.47 | 0.44 | 96 | 1008.2 |
| 20260506154816 | 49 | 351 | 4.0 | 7.0 | 0.00 | 0.47 | 0.44 | 96 | 1008.1 |
| 20260506154316 | 49 | 347 | 4.0 | 7.0 | 0.00 | 0.47 | 0.44 | 96 | 1008.0 |
| 20260506153816 | 49 | 0 | 3.0 | 9.0 | 0.00 | 0.47 | 0.44 | 96 | 1007.8 |
| 20260506153315 | 49 | 1 | 4.0 | 9.0 | 0.00 | 0.47 | 0.44 | 95 | 1007.6 |
| 20260506153038 | 49 | 1 | 4.0 | 5.0 | 0.00 | 0.47 | 0.44 | 96 | 1007.6 |
| 20260506152317 | 49 | 0 | 2.0 | 7.0 | 0.00 | 0.47 | 0.44 | 96 | 1007.5 |
| 20260506152035 | 49 | 0 | 4.0 | 7.0 | 0.00 | 0.47 | 0.44 | 96 | 1007.5 |
| 20260506151315 | 49 | 357 | 3.0 | 6.0 | 0.00 | 0.47 | 0.44 | 96 | 1007.5 |
| 20260506150815 | 49 | 348 | 2.0 | 6.0 | 0.00 | 0.47 | 0.44 | 96 | 1007.3 |
| 20260506150316 | 49 | 338 | 3.0 | 6.0 | 0.00 | 0.47 | 0.44 | 96 | 1007.3 |
| 20260506145816 | 49 | 351 | 2.0 | 6.0 | 0.00 | 0.47 | 0.44 | 96 | 1007.2 |
| 20260506145315 | 49 | 0 | 3.0 | 6.0 | 0.00 | 0.47 | 0.44 | 96 | 1007.0 |
| 20260506144815 | 49 | 358 | 4.0 | 6.0 | 0.00 | 0.47 | 0.44 | 96 | 1007.0 |
| 20260506144315 | 49 | 0 | 2.0 | 6.0 | 0.00 | 0.47 | 0.44 | 95 | 1007.1 |
| 20260506143814 | 49 | 0 | 3.0 | 6.0 | 0.00 | 0.47 | 0.44 | 95 | 1007.0 |
| 20260506143315 | 49 | 0 | 1.0 | 5.0 | 0.01 | 0.47 | 0.44 | 96 | 1006.9 |
| 20260506142815 | 49 | 0 | 3.0 | 6.0 | 0.01 | 0.47 | 0.44 | 96 | 1006.6 |
| 20260506142314 | 49 | 0 | 2.0 | 6.0 | 0.01 | 0.47 | 0.44 | 96 | 1006.4 |
| 20260506141814 | 48 | 353 | 1.0 | 7.0 | 0.01 | 0.47 | 0.44 | 96 | 1006.4 |
| 20260506141316 | 48 | 329 | 3.0 | 7.0 | 0.01 | 0.47 | 0.44 | 96 | 1006.5 |
| 20260506140814 | 48 | 0 | 2.0 | 9.0 | 0.01 | 0.47 | 0.44 | 96 | 1006.4 |
| 20260506140314 | 48 | 0 | 4.0 | 9.0 | 0.01 | 0.47 | 0.44 | 96 | 1006.4 |
| 20260506135813 | 48 | 0 | 3.0 | 7.0 | 0.02 | 0.47 | 0.44 | 96 | 1006.5 |
| 20260506135315 | 48 | 0 | 2.0 | 6.0 | 0.02 | 0.47 | 0.44 | 95 | 1006.4 |
| 20260506134814 | 48 | 24 | 4.0 | 7.0 | 0.02 | 0.47 | 0.44 | 95 | 1006.5 |
| 20260506134313 | 48 | 0 | 3.0 | 7.0 | 0.02 | 0.47 | 0.44 | 95 | 1006.3 |
| 20260506134032 | 48 | 334 | 3.0 | 10.0 | 0.02 | 0.47 | 0.44 | 95 | 1006.2 |
| 20260506133313 | 48 | 0 | 4.0 | 11.0 | 0.01 | 0.46 | 0.43 | 95 | 1006.2 |
| 20260506132813 | 48 | 353 | 4.0 | 11.0 | 0.01 | 0.46 | 0.43 | 95 | 1006.1 |
| 20260506132536 | 48 | 347 | 5.0 | 11.0 | 0.01 | 0.46 | 0.43 | 95 | 1006.1 |
| 20260506131813 | 49 | 353 | 4.0 | 12.0 | 0.01 | 0.46 | 0.43 | 95 | 1006.2 |
| 20260506131313 | 49 | 17 | 6.0 | 12.0 | 0.01 | 0.46 | 0.43 | 95 | 1006.1 |
| 20260506131034 | 49 | 4 | 7.0 | 11.0 | 0.01 | 0.46 | 0.43 | 95 | 1005.2 |
| 20260506130313 | 49 | 0 | 4.0 | 13.0 | 0.01 | 0.46 | 0.43 | 95 | 1005.1 |
| 20260506125811 | 49 | 338 | 7.0 | 13.0 | 0.00 | 0.45 | 0.42 | 95 | 1005.3 |
| 20260506125311 | 49 | 348 | 4.0 | 9.0 | 0.00 | 0.45 | 0.42 | 95 | 1005.3 |
| 20260506124813 | 50 | 336 | 4.0 | 9.0 | 0.00 | 0.45 | 0.42 | 95 | 1005.2 |
| 20260506124533 | 50 | 343 | 4.0 | 7.0 | 0.01 | 0.45 | 0.42 | 95 | 1005.0 |
| 20260506123812 | 50 | 334 | 3.0 | 6.0 | 0.01 | 0.45 | 0.42 | 95 | 1004.9 |
| 20260506123313 | 50 | 0 | 3.0 | 9.0 | 0.02 | 0.45 | 0.42 | 94 | 1004.8 |
| 20260506122813 | 51 | 0 | 4.0 | 9.0 | 0.02 | 0.45 | 0.42 | 95 | 1004.8 |
| 20260506122312 | 51 | 345 | 2.0 | 3.0 | 0.03 | 0.45 | 0.42 | 94 | 1004.6 |
| 20260506121812 | 51 | 345 | 2.0 | 3.0 | 0.03 | 0.45 | 0.42 | 94 | 1004.5 |
| 20260506121312 | 52 | 347 | 1.0 | 4.0 | 0.03 | 0.45 | 0.42 | 94 | 1004.6 |
| 20260506120811 | 52 | 350 | 3.0 | 7.0 | 0.03 | 0.45 | 0.42 | 94 | 1004.5 |
| 20260506120311 | 52 | 343 | 4.0 | 7.0 | 0.03 | 0.45 | 0.42 | 94 | 1004.6 |
| 20260506115811 | 53 | 331 | 4.0 | 6.0 | 0.03 | 0.45 | 0.42 | 94 | 1004.5 |
| 20260506115310 | 54 | 338 | 1.0 | 7.0 | 0.03 | 0.45 | 0.42 | 94 | 1004.5 |
| 20260506115034 | 55 | 333 | 4.0 | 7.0 | 0.03 | 0.45 | 0.42 | 93 | 1004.6 |
| 20260506114310 | 56 | 252 | 1.0 | 7.0 | 0.02 | 0.44 | 0.41 | 95 | 1004.4 |
| 20260506113810 | 56 | 251 | 5.0 | 10.0 | 0.02 | 0.44 | 0.41 | 95 | 1004.3 |
| 20260506113310 | 56 | 235 | 6.0 | 11.0 | 0.01 | 0.43 | 0.40 | 95 | 1004.0 |
| 20260506112810 | 56 | 234 | 5.0 | 14.0 | 0.01 | 0.43 | 0.40 | 95 | 1004.2 |
| 20260506112531 | 56 | 200 | 6.0 | 14.0 | 0.00 | 0.42 | 0.39 | 95 | 1004.1 |
| 20260506111810 | 56 | 231 | 7.0 | 16.0 | 0.00 | 0.42 | 0.39 | 95 | 1004.0 |
| 20260506111310 | 56 | 219 | 8.0 | 16.0 | 0.00 | 0.42 | 0.39 | 95 | 1003.9 |
| 20260506111028 | 56 | 228 | 9.0 | 16.0 | 0.01 | 0.42 | 0.39 | 95 | 1003.8 |
| 20260506110310 | 56 | 235 | 10.0 | 16.0 | 0.01 | 0.42 | 0.39 | 95 | 1003.7 |
| 20260506105810 | 56 | 214 | 9.0 | 18.0 | 0.01 | 0.42 | 0.39 | 95 | 1003.7 |
| 20260506105309 | 56 | 228 | 8.0 | 18.0 | 0.01 | 0.42 | 0.39 | 95 | 1003.4 |
| 20260506104810 | 56 | 204 | 8.0 | 14.0 | 0.02 | 0.42 | 0.39 | 95 | 1003.3 |
| 20260506104310 | 56 | 248 | 8.0 | 16.0 | 0.03 | 0.42 | 0.39 | 95 | 1003.5 |
| 20260506103809 | 56 | 241 | 11.0 | 16.0 | 0.03 | 0.42 | 0.39 | 95 | 1003.3 |
| 20260506103531 | 56 | 235 | 9.0 | 15.0 | 0.03 | 0.42 | 0.39 | 95 | 1003.4 |
| 20260506102809 | 56 | 234 | 9.0 | 13.0 | 0.04 | 0.42 | 0.39 | 95 | 1003.2 |
| 20260506102309 | 56 | 231 | 9.0 | 15.0 | 0.04 | 0.42 | 0.39 | 95 | 1003.2 |
| 20260506101809 | 56 | 241 | 6.0 | 16.0 | 0.04 | 0.42 | 0.39 | 95 | 1003.2 |
| 20260506101309 | 56 | 200 | 11.0 | 16.0 | 0.05 | 0.42 | 0.39 | 95 | 1003.4 |
| 20260506100809 | 56 | 214 | 10.0 | 16.0 | 0.04 | 0.41 | 0.38 | 95 | 1003.6 |
| 20260506100528 | 56 | 209 | 9.0 | 16.0 | 0.04 | 0.41 | 0.38 | 95 | 1003.5 |
| 20260506095808 | 56 | 214 | 6.0 | 14.0 | 0.05 | 0.41 | 0.38 | 95 | 1003.6 |
| 20260506095310 | 56 | 240 | 6.0 | 14.0 | 0.05 | 0.41 | 0.38 | 95 | 1003.7 |
| 20260506094809 | 56 | 206 | 7.0 | 13.0 | 0.05 | 0.40 | 0.37 | 95 | 1003.7 |
| 20260506094310 | 56 | 230 | 9.0 | 15.0 | 0.04 | 0.39 | 0.36 | 95 | 1003.8 |
| 20260506093808 | 56 | 209 | 9.0 | 15.0 | 0.05 | 0.39 | 0.36 | 95 | 1003.8 |
| 20260506093309 | 56 | 214 | 8.0 | 14.0 | 0.05 | 0.39 | 0.36 | 95 | 1003.8 |
| 20260506092810 | 56 | 217 | 8.0 | 16.0 | 0.05 | 0.38 | 0.35 | 95 | 1003.7 |
| 20260506092308 | 56 | 204 | 8.0 | 16.0 | 0.05 | 0.38 | 0.35 | 95 | 1003.8 |
| 20260506091809 | 56 | 241 | 10.0 | 15.0 | 0.05 | 0.38 | 0.35 | 95 | 1003.6 |
| 20260506091309 | 56 | 210 | 8.0 | 14.0 | 0.05 | 0.37 | 0.34 | 94 | 1003.7 |
| 20260506090808 | 56 | 217 | 10.0 | 15.0 | 0.05 | 0.37 | 0.34 | 94 | 1003.6 |
| 20260506090308 | 56 | 221 | 10.0 | 15.0 | 0.07 | 0.37 | 0.34 | 94 | 1003.6 |
| 20260506085808 | 56 | 252 | 7.0 | 15.0 | 0.07 | 0.36 | 0.33 | 94 | 1003.6 |
| 20260506085307 | 56 | 230 | 9.0 | 15.0 | 0.08 | 0.36 | 0.33 | 94 | 1003.6 |
| 20260506085030 | 56 | 226 | 8.0 | 17.0 | 0.08 | 0.35 | 0.32 | 94 | 1003.7 |
| 20260506084307 | 56 | 209 | 8.0 | 17.0 | 0.09 | 0.35 | 0.32 | 94 | 1003.7 |
| 20260506083808 | 56 | 227 | 10.0 | 15.0 | 0.08 | 0.34 | 0.31 | 94 | 1003.8 |
| 20260506083307 | 56 | 243 | 8.0 | 13.0 | 0.09 | 0.34 | 0.31 | 94 | 1003.8 |
| 20260506082807 | 56 | 223 | 9.0 | 13.0 | 0.09 | 0.33 | 0.30 | 94 | 1003.8 |
| 20260506082529 | 56 | 216 | 9.0 | 13.0 | 0.09 | 0.33 | 0.30 | 94 | 1003.8 |
| 20260506081808 | 56 | 214 | 8.0 | 13.0 | 0.10 | 0.33 | 0.30 | 94 | 1003.9 |
| 20260506081307 | 56 | 233 | 8.0 | 13.0 | 0.10 | 0.32 | 0.29 | 93 | 1004.0 |
| 20260506080807 | 56 | 209 | 8.0 | 15.0 | 0.10 | 0.32 | 0.29 | 93 | 1003.9 |
| 20260506080307 | 56 | 227 | 11.0 | 15.0 | 0.08 | 0.30 | 0.27 | 93 | 1004.0 |
| 20260506073307 | 56 | 203 | 6.0 | 10.0 | 0.07 | 0.25 | 0.22 | 93 | 1004.1 |
| 20260506073034 | 56 | 213 | 4.0 | 6.0 | 0.06 | 0.24 | 0.21 | 93 | 1004.2 |
| 20260506072307 | 56 | 209 | 2.0 | 6.0 | 0.06 | 0.24 | 0.21 | 93 | 1004.1 |
| 20260506071806 | 56 | 206 | 4.0 | 6.0 | 0.05 | 0.23 | 0.20 | 93 | 1004.0 |
| 20260506071306 | 56 | 212 | 4.0 | 6.0 | 0.04 | 0.22 | 0.19 | 93 | 1004.3 |
| 20260506070806 | 56 | 223 | 4.0 | 10.0 | 0.04 | 0.22 | 0.19 | 93 | 1004.2 |
| 20260506070306 | 56 | 220 | 5.0 | 10.0 | 0.05 | 0.22 | 0.19 | 93 | 1004.0 |
| 20260506062306 | 56 | 213 | 0.0 | 3.0 | 0.10 | 0.18 | 0.15 | 92 | 1004.0 |
| 20260506062028 | 56 | 213 | 2.0 | 4.0 | 0.11 | 0.18 | 0.15 | 92 | 1004.2 |
| 20260506061303 | 56 | 213 | 1.0 | 4.0 | 0.12 | 0.18 | 0.15 | 92 | 1004.3 |
| 20260506060803 | 56 | 213 | 3.0 | 4.0 | 0.13 | 0.18 | 0.15 | 92 | 1004.4 |
| 20260506060304 | 56 | 214 | 2.0 | 6.0 | 0.12 | 0.17 | 0.14 | 91 | 1004.6 |
| 20260506051304 | 58 | 219 | 6.0 | 15.0 | 0.03 | 0.06 | 0.03 | 88 | 1005.6 |
| 20260506051032 | 57 | 223 | 10.0 | 15.0 | 0.02 | 0.05 | 0.02 | 89 | 1005.7 |
| 20260506050304 | 57 | 241 | 6.0 | 9.0 | 0.02 | 0.05 | 0.02 | 90 | 1006.0 |
| 20260506044803 | 57 | 226 | 0.0 | 1.0 | 0.02 | 0.04 | 0.01 | 90 | 1006.1 |
| 20260506044303 | 57 | 226 | 0.0 | 0.0 | 0.02 | 0.04 | 0.01 | 89 | 1006.0 |
| 20260506044023 | 57 | 226 | 0.0 | 0.0 | 0.03 | 0.04 | 0.01 | 88 | 1005.9 |
| 20260506043304 | 58 | 226 | 0.0 | 1.0 | 0.02 | 0.03 | 0.00 | 88 | 1005.7 |
| 20260506043027 | 58 | 226 | 0.0 | 2.0 | 0.02 | 0.03 | 0.00 | 87 | 1005.7 |
| 20260506042305 | 58 | 226 | 1.0 | 2.0 | 0.02 | 0.03 | 0.00 | 86 | 1005.7 |
| 20260506041803 | 58 | 226 | 0.0 | 3.0 | 0.03 | 0.03 | 0.00 | 85 | 1005.5 |
| 20260506041303 | 58 | 226 | 1.0 | 3.0 | 0.03 | 0.03 | 0.00 | 85 | 1005.5 |
| 20260506041030 | 58 | 226 | 2.0 | 5.0 | 0.03 | 0.03 | 0.00 | 84 | 1005.7 |
| 20260506040303 | 58 | 226 | 2.0 | 5.0 | 0.03 | 0.03 | 0.00 | 84 | 1005.6 |
| 20260506035306 | 59 | 228 | 2.0 | 6.0 | 0.02 | 0.02 | 0.02 | 82 | 1005.9 |
| 20260506034803 | 59 | 228 | 3.0 | 5.0 | 0.02 | 0.02 | 0.02 | 81 | 1006.0 |
| 20260506034302 | 59 | 231 | 4.0 | 7.0 | 0.02 | 0.02 | 0.02 | 80 | 1006.1 |
| 20260506033303 | 60 | 231 | 4.0 | 13.0 | 0.01 | 0.01 | 0.01 | 76 | 1006.1 |
| 20260506032803 | 61 | 234 | 6.0 | 13.0 | 0.01 | 0.01 | 0.01 | 73 | 1006.1 |
| 20260506032305 | 62 | 209 | 8.0 | 15.0 | 0.01 | 0.01 | 0.01 | 71 | 1006.1 |
| 20260506031802 | 63 | 231 | 9.0 | 15.0 | 0.00 | 0.00 | 0.00 | 68 | 1006.2 |
| 20260506031524 | 63 | 228 | 10.0 | 17.0 | 0.00 | 0.00 | 0.00 | 66 | 1006.2 |
| 20260506030802 | 64 | 247 | 8.0 | 18.0 | 0.00 | 0.00 | 0.00 | 65 | 1006.2 |
| 20260506030301 | 64 | 220 | 10.0 | 19.0 | 0.00 | 0.00 | 0.00 | 64 | 1006.3 |
| 20260506025801 | 65 | 230 | 11.0 | 19.0 | 0.00 | 0.00 | 0.00 | 61 | 1006.1 |
| 20260506025305 | 66 | 227 | 9.0 | 19.0 | 0.00 | 0.00 | 0.00 | 60 | 1006.1 |
| 20260506024802 | 66 | 227 | 10.0 | 18.0 | 0.00 | 0.00 | 0.00 | 60 | 1006.2 |
| 20260506024301 | 66 | 238 | 5.0 | 11.0 | 0.00 | 0.00 | 0.00 | 61 | 1006.1 |
| 20260506023802 | 66 | 248 | 6.0 | 10.0 | 0.00 | 0.00 | 0.00 | 60 | 1006.1 |
| 20260506023301 | 66 | 233 | 6.0 | 10.0 | 0.00 | 0.00 | 0.00 | 60 | 1006.0 |
| 20260506023018 | 66 | 231 | 5.0 | 7.0 | 0.00 | 0.00 | 0.00 | 60 | 1005.9 |
| 20260506022259 | 66 | 237 | 4.0 | 10.0 | 0.00 | 0.00 | 0.00 | 59 | 1005.7 |
| 20260506021759 | 66 | 217 | 5.0 | 10.0 | 0.00 | 0.00 | 0.00 | 59 | 1005.7 |
| 20260506021259 | 67 | 202 | 6.0 | 10.0 | 0.00 | 0.00 | 0.00 | 59 | 1005.6 |
| 20260506020800 | 67 | 219 | 6.0 | 10.0 | 0.00 | 0.00 | 0.00 | 58 | 1005.6 |
| 20260506020300 | 67 | 220 | 7.0 | 10.0 | 0.00 | 0.00 | 0.00 | 58 | 1005.6 |
| 20260506015800 | 67 | 228 | 4.0 | 12.0 | 0.00 | 0.00 | 0.00 | 58 | 1005.6 |
| 20260506015532 | 67 | 238 | 6.0 | 13.0 | 0.00 | 0.00 | 0.00 | 58 | 1005.7 |
| 20260506014800 | 67 | 227 | 8.0 | 13.0 | 0.00 | 0.00 | 0.00 | 58 | 1005.9 |
| 20260506014300 | 67 | 247 | 6.0 | 13.0 | 0.00 | 0.00 | 0.00 | 58 | 1005.9 |
| 20260506013800 | 67 | 251 | 7.0 | 13.0 | 0.00 | 0.00 | 0.00 | 57 | 1005.7 |
| 20260506013300 | 67 | 209 | 7.0 | 13.0 | 0.00 | 0.00 | 0.00 | 57 | 1005.7 |
| 20260506012801 | 67 | 245 | 8.0 | 14.0 | 0.00 | 0.00 | 0.00 | 57 | 1005.7 |
| 20260506012300 | 67 | 248 | 9.0 | 14.0 | 0.00 | 0.00 | 0.00 | 57 | 1005.7 |
| 20260506012029 | 67 | 221 | 7.0 | 11.0 | 0.00 | 0.00 | 0.00 | 58 | 1005.7 |
| 20260506011300 | 67 | 241 | 7.0 | 10.0 | 0.00 | 0.00 | 0.00 | 57 | 1005.6 |
| 20260506010759 | 67 | 219 | 6.0 | 11.0 | 0.00 | 0.00 | 0.00 | 57 | 1005.6 |
| 20260506010300 | 67 | 206 | 6.0 | 11.0 | 0.00 | 0.00 | 0.00 | 57 | 1005.5 |
| 20260506005759 | 67 | 228 | 6.0 | 9.0 | 0.00 | 0.00 | 0.00 | 57 | 1005.5 |
| 20260506005518 | 67 | 223 | 5.0 | 11.0 | 0.00 | 0.00 | 0.00 | 58 | 1005.3 |
| 20260506005024 | 67 | 210 | 5.0 | 11.0 | 0.00 | 0.00 | 0.00 | 57 | 1005.4 |
| 20260506004300 | 67 | 237 | 5.0 | 11.0 | 0.00 | 0.00 | 0.00 | 57 | 1005.4 |
| 20260506003759 | 67 | 220 | 6.0 | 11.0 | 0.00 | 0.00 | 0.00 | 57 | 1005.4 |
| 20260506003521 | 67 | 238 | 4.0 | 10.0 | 0.00 | 0.00 | 0.00 | 57 | 1005.6 |
| 20260506002759 | 68 | 210 | 6.0 | 10.0 | 0.00 | 0.00 | 0.00 | 57 | 1005.7 |
| 20260506002259 | 68 | 224 | 6.0 | 11.0 | 0.00 | 0.00 | 0.00 | 56 | 1005.6 |
| 20260506001758 | 68 | 209 | 6.0 | 11.0 | 0.00 | 0.00 | 0.00 | 56 | 1005.6 |
| 20260506001259 | 68 | 214 | 6.0 | 11.0 | 0.00 | 0.00 | 0.00 | 56 | 1005.6 |
| 20260506000759 | 68 | 226 | 5.0 | 11.0 | 0.00 | 0.00 | 0.00 | 55 | 1005.7 |
| 20260506000259 | 68 | 230 | 8.0 | 13.0 | 0.00 | 0.00 | 0.00 | 55 | 1005.9 |
| 20260505235758 | 68 | 214 | 8.0 | 13.0 | 0.00 | 0.00 | 0.00 | 55 | 1005.7 |
| 20260505235258 | 69 | 243 | 7.0 | 12.0 | 0.00 | 0.00 | 0.00 | 54 | 1005.9 |
| 20260505234758 | 69 | 224 | 8.0 | 14.0 | 0.00 | 0.00 | 0.00 | 54 | 1005.9 |
| 20260505234258 | 69 | 238 | 6.0 | 14.0 | 0.00 | 0.00 | 0.00 | 55 | 1005.9 |
| 20260505233759 | 69 | 202 | 8.0 | 16.0 | 0.00 | 0.00 | 0.00 | 54 | 1005.9 |
| 20260505233300 | 69 | 223 | 9.0 | 16.0 | 0.00 | 0.00 | 0.00 | 53 | 1005.9 |
| 20260505232758 | 69 | 238 | 10.0 | 16.0 | 0.00 | 0.00 | 0.00 | 53 | 1005.7 |
| 20260505232258 | 69 | 233 | 9.0 | 16.0 | 0.00 | 0.00 | 0.00 | 53 | 1005.9 |